Regional Weather Roundup
Issued by NWS

Home | Current Version | Previous Version | Text Only | Print | Product List | Glossary On
Versions: 1 2 3 4 5 6 7 8 9 10 11 12 13 14 15 16 17 18 19 20 21 22 23 24 25 26 27 28 29 30 31 32 33 34 35 36 37 38 39 40 41 42 43 44 45 46 47 48 49 50
000
ASUS43 KLMK 190002
RWRKY
KENTUCKY REGIONAL WEATHER ROUNDUP
NATIONAL WEATHER SERVICE LOUISVILLE KY
800 PM EDT THU SEP 18 2014

NOTE "FAIR" INDICATES FEW OR NO CLOUDS BELOW 12,000 FEET
WITH NO SIGNIFICANT WEATHER AND/OR OBSTRUCTIONS TO VISIBILITY.

KYZ001>023-026-027-061>063-070>075-190100-
WESTERN AND SOUTH CENTRAL KENTUCKY

CITY           SKY/WX    TMP DP  RH WIND       PRES   REMARKS
PADUCAH        MOCLDY    73  60  63 NE3       29.99R
HENDERSON      CLEAR     68  52  56 NE8       30.01S
OWENSBORO      CLEAR     71  54  55 E8        30.02R
HOPKINSVILLE   MOCLDY    68  60  75 NE7       29.99R
BOWLING GREEN  CLEAR     68  55  63 NE5       30.01R
GLASGOW        CLEAR     67  55  64 N3        30.01R
$$

KYZ024-025-028>034-038-045-046-053-190100-
NORTH CENTRAL KENTUCKY

CITY           SKY/WX    TMP DP  RH WIND       PRES   REMARKS
LOUISVILLE/SDF PTCLDY    70  51  51 NE8       30.03R
LOUISVILLE/LOU CLEAR     70  50  49 NE5       30.04S
FORT KNOX      PTCLDY    65  55  67 N5        30.02S
$$

KYZ035>037-039>044-047>052-055>060-089>105-190100-
NORTHEAST KENTUCKY

CITY           SKY/WX    TMP DP  RH WIND       PRES   REMARKS
LEXINGTON      CLEAR     65  51  60 NE7       30.05S
COVINGTON      CLEAR     68  45  43 NE7       30.07R
FRANKFORT      CLEAR     66  50  56 NE3       30.04S
$$

KYZ054-064>069-076>088-106>120-190100-
SOUTHEAST KENTUCKY

CITY           SKY/WX    TMP DP  RH WIND       PRES   REMARKS
JACKSON        CLEAR     62  52  69 CALM      30.06R
LONDON         CLEAR     66  55  67 NE5       30.04S
SOMERSET       NOT AVBL
MIDDLESBORO    PTCLDY    66  59  80 CALM      30.03R
MONTICELLO     PTCLDY    64  59  84 CALM      30.04R
$$




USA.gov is the U.S. government's official web portal to all federal, state and local government web resources and services.